www.pogodaiklimat.ru

Погода и климат >> Архив погоды >> Мексика >> Hermosillo la Magna


ПОГОДА в Hermosillo la Magna

  • Прогноз погоды в Hermosillo la Magna
  • Монитор погоды в Hermosillo la Magna
  • Климат города

АРХИВ ПОГОДЫ в Hermosillo la Magna

Время (UTC), дата Ветер
(напр.,м/с)
 
Видим.   Явления Облачность Т
(С)
Тd
(С)
f
(%)
Тe
(С)
Тes
(С)
Комфортность P
(гПа)
Po
(гПа)
Тmin
(С)
Tmax
(С)
R
(мм)
R24
(мм)
S
(см)
18 20.06 н/о н/о
21 20.06 З 2 н/о н/о +42.5 +11.9 17 +42 +42 опасность
перегрева
1005.3 982.4
00 21.06 н/о н/о
03 21.06 З 3 н/о н/о +35.0 +16.0 32 +37 +37 очень
душно
1004.8 981.7
06 21.06 н/о н/о
09 21.06 Ю 2 н/о н/о +29.4 +17.4 48 +33 +33 душно 1006.9 983.0
12 21.06 СВ 3 н/о н/о +27.8 +17.3 53 +32 +32 душно 1006.8 982.8 +27.6 +44.0
15 21.06 В 4 н/о н/о +32.9 +17.4 40 +37 +37 очень
душно
1006.7 983.1
18 21.06 ЮЗ 2 н/о н/о +40.7 +17.2 26 +43 +43 опасность
перегрева
1005.9 983.2 +27.6 +40.7
21 21.06 З 3 н/о н/о +42.5 +17.0 23 +45 +45 опасность
перегрева
1003.4 980.8
00 22.06 З 5 н/о н/о +40.6 +18.8 28 1001.4 979.7 +27.6 +43.3
03 22.06 З 4 н/о н/о +35.0 +17.8 36 +39 +39 очень
душно
1003.2 980.1
06 22.06 Ю 2 н/о н/о +33.6 +18.5 41 +38 +38 очень
душно
1005.3 982.1 +27.6 +43.3
09 22.06 ЮЗ 4 н/о н/о +31.2 +18.5 47 +36 +36 очень
душно
1005.9 982.5
12 22.06 ЮВ 2 н/о н/о +16.0 -4 -4 1007.3 983.6 +28.7 +43.3
15 22.06 В 3 н/о н/о +29.1 +17.6 50 +33 +33 очень
душно
1009.1 985.4
18 22.06 Ю 2 н/о н/о +35.9 +16.6 32 +38 +38 очень
душно
1008.6 985.4 +28.2 +36.1
21 22.06 ЮЗ 3 н/о н/о +39.5 +16.6 26 +42 +42 опасность
перегрева
1005.9 983.1
00 23.06 ЮЗ 5 н/о н/о +38.6 +19.7 33 1004.3 982.5 +28.2 +41.3
03 23.06 З 3 н/о н/о +33.3 +16.9 38 +37 +37 очень
душно
1006.4 983.1
06 23.06 ЮЗ 2 н/о н/о +31.2 +16.1 40 +34 +34 душно 1007.7 984.2 +28.2 +41.3
09 23.06 З 2 н/о н/о +29.5 +16.6 46 +33 +33 душно 1006.9 983.3
12 23.06 С 1 н/о н/о +29.9 +19.2 53 +36 +36 очень
душно
1008.7 984.9 +27.7 +41.3
15 23.06 ЮВ 2 н/о н/о +32.2 +19.0 46 +38 +38 очень
душно
1009.6 986.2
18 23.06 Ю 2 н/о н/о +36.1 +16.8 32 +39 +39 очень
душно
1009.3 986.1 +27.7 +36.1
21 23.06 З 3 н/о н/о +39.5 +17.3 27 +42 +42 опасность
перегрева
1006.8 332.3
00 24.06 З 4 н/о н/о +37.0 +18.7 34 1004.3 5.0 +27.7 +39.6
03 24.06 З 4 н/о н/о +32.8 +18.8 44 +38 +38 очень
душно
1005.9 982.6
12 24.06 СВ 1 н/о н/о +18.2 -2 -2 1006.4 982.6 +27.1 +39.6
15 24.06 СВ 1 н/о н/о +31.8 +17.8 43 +36 +36 очень
душно
1007.5 984.1
18 24.06 З 3 н/о н/о +37.6 +15.7 27 +39 +39 очень
душно
1007.2 984.2 +26.8 +38.8
21 24.06 З 3 н/о н/о +42.4 +14.3 19 +43 +43 опасность
перегрева
1004.7 982.1
00 25.06 ЮЗ 5 н/о н/о +40.8 +17.1 25 1003.0 982.4 +26.8 +44.4
03 25.06 СВ 1 н/о н/о +37.2 +16.2 29 +39 +39 очень
душно
1006.4 983.4
06 25.06 З 3 н/о н/о +34.0 +15.6 33 +36 +36 душно 1006.4 983.2 +26.8 +44.4
09 25.06 З 2 н/о н/о +31.1 +14.6 37 +33 +33 душно 1008.0 984.5
12 25.06 ЮВ 2 н/о н/о +30.9 +17.3 44 +35 +35 очень
душно
1009.3 985.6 +29.4 +44.4
15 25.06 ЮВ 2 н/о н/о +33.7 +17.7 39 +38 +38 очень
душно
1010.9 987.5
18 25.06 Ю 2 н/о н/о +39.7 +17.3 27 +42 +42 опасность
перегрева
1010.6 987.7 +28.7 +40.3
21 25.06 З 3 н/о н/о +42.5 +16.8 23 +45 +45 опасность
перегрева
1008.6 332.6
00 26.06 З 4 н/о н/о +41.1 +17.2 25 1006.4 5.0 +28.7 +43.3
03 26.06 ЮЗ 2 н/о н/о +36.7 +17.6 33 +40 +40 очень
душно
1009.1 986.0
12 26.06 штиль 0 н/о н/о +17.6 -1 -1 1011.5 987.8 +29.2 +43.3
15 26.06 З 2 н/о н/о +29.9 +19.5 54 +36 +36 очень
душно
1011.7 988.0
18 26.06 ЮЗ 2 н/о н/о +40.2 +16.0 24 +42 +42 опасность
перегрева
1009.7 986.8 +28.8 +40.2
21 26.06 ЮЗ 3 н/о н/о +42.7 +15.2 20 +44 +44 опасность
перегрева
1007.7 985.1
00 27.06 З 5 н/о н/о +40.1 +19.0 30 1006.4 984.2 +28.8 +43.6
03 27.06 ЮЗ 4 н/о н/о +35.4 +18.6 37 +40 +40 очень
душно
1007.8 984.6
06 27.06 Ю 2 н/о н/о +34.0 +19.4 42 +39 +39 очень
душно
1010.2 986.9 +28.8 +43.6
09 27.06 Ю 2 н/о н/о +30.6 +19.0 50 +36 +36 очень
душно
1010.6 987.0
12 27.06 З 1 н/о н/о +20.6 -2 -2 1010.5 986.8 +28.8 +43.6
15 27.06 В 2 н/о н/о +33.4 +20.3 46 +40 +40 очень
душно
1011.6 988.2

 

Местоположение метеостанции Hermosillo la Magna (Мексика): широта 29.08 долгота -110.95 высота над уровнем моря 210 м.

В архиве по умолчанию представлена погода в Hermosillo la Magna за последнюю неделю. Архивные данные за месяц целиком и за предыдущие месяцы, начиная с января 2011 года, Вы можете получить, выбрав интересующий диапазон дат из раскрывающегося списка и нажав кнопку "Ввод!".

Внимание! Время в таблицах - всемирное. Для получения местного времени необходимо прибавить поправку, которая в Hermosillo la Magna равна -7 ч.

Смотрите также архив погоды в соседних городах и на ближайших метеорологических станциях:

Погода в Hermosillo (Мексика) (10 км)
Погода в Empalme (Мексика) (128 км)
Погода в Guaymas Upper Air Site (Мексика) (129 км)
Погода в Pilares de Nacoz (Мексика) (189 км)
Погода в Altar Son (Мексика) (201 км)
Погода в Ciudad Obregon (Мексика) (218 км)
Погода в Santa Rosalia (Мексика) (237 км)
Погода в Temosachic (Мексика) (307 км)
Погода в Nueva Casas Grandes (Мексика) (328 км)
Погода в Loreto (Мексика) (342 км)

Пояснения к столбцам:

Ветер - указаны скорость ветра в м/с - средняя за 10 мин, порывы в срок и между сроками (в фигурных скобках) и направление, откуда дует ветер: С - северный, СВ - северо-восточный, В - восточный, ЮВ - юго-восточный, Ю - южный, ЮЗ - юго-западный, З - западный, СЗ - северо-западный.
Видимость - горизонтальная дальность видимости в метрах или километрах. При видимости от 1 до 10 км при отсутствии осадков обычно наблюдается дымка, при ухудшении видимости до 1 км и менее - туман. В сухую погоду видимость может ухудшаться дымом, пылью или мглою.
Явления - указаны атмосферные явления, наблюдавшиеся в срок или в последний час перед сроком; фигурными скобками обозначены явления, наблюдавшиеся между сроками (за 1-3 часа до срока); квадратными скобками обозначены град или гололедные отложения с указанием их диаметра в мм.
Облачность - указаны через наклонную черту общая и нижняя облачность в баллах и высота нижней границы облаков в метрах; квадратными скобками обозначены формы облаков: Ci - перистые, Cs - перисто-слоистые, Cc - перисто-кучевые, Ac - высококучевые, As - высокослоистые, Sc - слоисто-кучевые, Ns - слоисто-дождевые, Cu - кучевые, Cb - кучево-дождевые. Подробнее классификацию облаков см. в Атласе облаков (PDF).
T - Температура воздуха - температура, измеренная на высоте 2 м над землей.
Td - Температура точки росы - температура, при понижении до которой содержащийся в воздухе водяной пар достигнет насыщения.
f - Относительная влажность воздуха - влажноcть воздуха, измеренная на высоте 2 м над землей.
Te - Эффективная температура - температура, которую ощущает одетый по сезону человек в тени. Характеристика душности погоды. При расчете учитывается влияние влажности воздуха и скорости ветра на теплоощущения человека.
Tes - Эффективная температура на солнце - температура, которую ощущает человек, с поправкой на солнечный нагрев. Характеристика знойности погоды. Зависит от высоты солнца над горизонтом, облачности и скорости ветра. Ночью, в пасмурную погоду, а также при ветре 12 м/с и более поправка равна нулю.
P - Атмосферное давление - приведенное к уровню моря атмосферное давление.
Po - Атмосферное давление - измеренное на уровне метеостанции атмосферное давление.
Tmin - Минимальная температура - минимум температуры воздуха на высоте 2 м над землей.
Tmax - Максимальная температура - максимум температуры воздуха на высоте 2 м над землей.
R - Количество осадков - Количество выпавших осадков за период времени, мм. При наведении курсора мыши на число - период времени, за который выпало указанное количество осадков.
R24 - Количество осадков - Количество выпавших осадков за 24 часа, мм.
S - Снежный покров - Высота снежного покрова, см. При наведении курсора мыши на число - состояние снежного покрова и степень покрытия местности в баллах.